Boulder City, NV

3:37 PM PST on February 05, 2016 (GMT -0800)
Boulder City

Weather History for KBVU - August, 2014

Change the Weather History Date:

Wednesday, August 13, 2014

  Actual Average (KLAS) Record (KLAS)
Temperature  
Mean Temperature 84 °F 91 °F  
Max Temperature 93 °F 103 °F 113 °F (1937)
Min Temperature 75 °F 80 °F 60 °F (1949)
Degree Days  
Heating Degree Days 0 0  
Month to date heating degree days 0  
Since 1 June heating degree days 1  
Since 1 July heating degree days 0  
Cooling Degree Days 19 26  
Month to date cooling degree days 349  
Year to date cooling degree days 2403  
Since 1 June cooling degree days 1853  
Growing Degree Days 34 (Base 50)    
Moisture  
Dew Point 64 °F    
Average Humidity 53    
Maximum Humidity 74    
Minimum Humidity 34    
Precipitation  
Precipitation 0.00 in 0.01 in 0.53 in (1970)
Month to date precipitation 0.15  
Year to date precipitation 2.63  
Snow  
Snow 0.00 in 0.00 in 0.00 in ()
Month to date snowfall 0.0  
Since 1 June snowfall 0.0  
Since 1 July snowfall 0.0  
Snow Depth -    
Sea Level Pressure  
Sea Level Pressure 29.97 in    
Wind  
Wind Speed 10 mph (SE)    
Max Wind Speed 22 mph    
Max Gust Speed 25 mph    
Visibility 10 miles    
Events      
T = Trace of Precipitation, MM = Missing Value Source: NWS Daily Summary

Daily Weather History Graph

Daily Weather History Graph

Search for Another Location

Airport or City:

Trip Planner

Search our weather history database for the weather conditions in past years. The results will help you decide how hot, cold, wet, or windy it might be!

Date:

Astronomy

Aug. 13, 2014 Rise Set
Actual Time 5:56 AM PDT 7:31 PM PDT
Civil Twilight 5:29 AM PDT 7:58 PM PDT
Nautical Twilight 4:56 AM PDT 8:31 PM PDT
Astronomical Twilight 4:21 AM PDT 9:06 PM PDT
Moon 9:28 PM PDT (8/13) 9:21 AM PDT (8/13)
Length of Visible Light 14h 29m
Length of Day
13h 35m
Waning Gibbous, 87% of the Moon is Illuminated
Aug 13
Waning Gibbous
Aug 17
Last Quarter
Aug 25
New
Sep 2
First Quarter
Sep 8
Full

Hourly Weather History & Observations

Time (PDT) Temp. Heat Index Dew Point Humidity Pressure Visibility Wind Dir Wind Speed Gust Speed Precip Events Conditions
12:15 AM 78.8 °F - 68.0 °F 69% 29.98 in 10.0 mi SE 11.5 mph - N/A   Clear
12:35 AM 78.8 °F - 68.0 °F 69% 29.98 in 10.0 mi ESE 9.2 mph - N/A   Clear
12:55 AM 78.8 °F - 68.0 °F 69% 29.98 in - SE 11.5 mph - N/A   Clear
1:15 AM 78.8 °F - 68.0 °F 69% 29.98 in 10.0 mi ESE 9.2 mph - N/A   Clear
1:35 AM 77.0 °F - 68.0 °F 74% 29.98 in 10.0 mi SE 9.2 mph - N/A   Clear
1:55 AM 77.0 °F - 68.0 °F 74% 29.98 in 10.0 mi ESE 10.4 mph - N/A   Clear
2:15 AM 77.0 °F - 66.2 °F 69% 29.97 in 10.0 mi ESE 12.7 mph - N/A   Clear
2:35 AM 77.0 °F - 68.0 °F 74% 29.98 in 10.0 mi ESE 12.7 mph - N/A   Clear
2:55 AM 77.0 °F - 68.0 °F 74% 29.98 in 10.0 mi ESE 10.4 mph - N/A   Clear
3:15 AM 77.0 °F - 66.2 °F 69% 29.98 in 10.0 mi ESE 12.7 mph - N/A   Clear
3:35 AM 75.2 °F - 66.2 °F 73% 29.99 in 10.0 mi SE 9.2 mph - N/A   Clear
3:55 AM 75.2 °F - 66.2 °F 73% 29.99 in 10.0 mi ESE 6.9 mph - N/A   Clear
4:15 AM 75.2 °F - 66.2 °F 73% 29.99 in 10.0 mi ESE 8.1 mph - N/A   Clear
4:35 AM 75.2 °F - 66.2 °F 73% 29.98 in 10.0 mi ESE 10.4 mph - N/A   Clear
6:35 AM 75.2 °F - 66.2 °F 73% 30.01 in 10.0 mi SE 5.8 mph - N/A   Partly Cloudy
7:15 AM 77.0 °F - 66.2 °F 69% 30.02 in 10.0 mi ESE 5.8 mph - N/A   Mostly Cloudy
7:35 AM 77.0 °F - 66.2 °F 69% 30.02 in 10.0 mi ESE 5.8 mph - N/A   Mostly Cloudy
8:15 AM 78.8 °F - 66.2 °F 65% 30.03 in 10.0 mi ESE 9.2 mph - N/A   Mostly Cloudy
8:35 AM 78.8 °F - 64.4 °F 61% 30.03 in 10.0 mi ESE 10.4 mph - N/A   Mostly Cloudy
8:55 AM 80.6 °F 82.3 °F 64.4 °F 58% 30.03 in 10.0 mi SE 12.7 mph - N/A   Mostly Cloudy
9:15 AM 80.6 °F 82.3 °F 64.4 °F 58% 30.03 in 10.0 mi ESE 11.5 mph - N/A   Scattered Clouds
9:35 AM 80.6 °F 82.3 °F 64.4 °F 58% 30.03 in 10.0 mi SE 10.4 mph - N/A   Scattered Clouds
9:55 AM 82.4 °F 83.4 °F 62.6 °F 51% 30.03 in 10.0 mi SSE 9.2 mph - N/A   Scattered Clouds
10:15 AM 84.2 °F 85.6 °F 64.4 °F 51% 30.03 in 10.0 mi ESE 11.5 mph - N/A   Partly Cloudy
10:35 AM 84.2 °F 85.0 °F 62.6 °F 48% 30.03 in 10.0 mi Variable 5.8 mph 13.8 mph N/A   Mostly Cloudy
10:55 AM 84.2 °F 85.0 °F 62.6 °F 48% 30.03 in 10.0 mi Variable 6.9 mph 15.0 mph N/A   Overcast
11:15 AM 84.2 °F 85.0 °F 62.6 °F 48% 30.02 in 10.0 mi SE 5.8 mph 12.7 mph N/A   Overcast
11:35 AM 86.0 °F 86.6 °F 62.6 °F 45% 30.02 in 10.0 mi SSE 13.8 mph - N/A   Mostly Cloudy
11:55 AM 86.0 °F 86.6 °F 62.6 °F 45% 30.01 in 10.0 mi South 6.9 mph 13.8 mph N/A   Scattered Clouds
12:15 PM 87.8 °F 88.5 °F 62.6 °F 43% 30.00 in 10.0 mi SE 8.1 mph - N/A   Clear
12:35 PM 87.8 °F 88.5 °F 62.6 °F 43% 29.99 in 10.0 mi SE 9.2 mph - N/A   Clear
12:55 PM 87.8 °F 88.5 °F 62.6 °F 43% 29.98 in 10.0 mi Calm Calm 15.0 mph N/A   Clear
1:15 PM 89.6 °F 90.1 °F 62.6 °F 40% 29.98 in 10.0 mi Calm Calm 11.5 mph N/A   Partly Cloudy
1:35 PM 89.6 °F 90.1 °F 62.6 °F 40% 29.97 in 10.0 mi ESE 10.4 mph - N/A   Mostly Cloudy
1:55 PM 91.4 °F 92.1 °F 62.6 °F 38% 29.96 in 10.0 mi Calm Calm 19.6 mph N/A   Scattered Clouds
2:15 PM 93.2 °F 94.1 °F 62.6 °F 36% 29.95 in 10.0 mi ESE 12.7 mph 18.4 mph N/A   Partly Cloudy
2:35 PM 91.4 °F 92.1 °F 62.6 °F 38% 29.95 in 10.0 mi SE 13.8 mph 20.7 mph N/A   Clear
2:55 PM 93.2 °F 93.3 °F 60.8 °F 34% 29.94 in 10.0 mi South 13.8 mph 20.7 mph N/A   Partly Cloudy
3:15 PM 93.2 °F 93.3 °F 60.8 °F 34% 29.93 in 10.0 mi SSE 13.8 mph - N/A   Partly Cloudy
3:35 PM 93.2 °F 93.3 °F 60.8 °F 34% 29.92 in 10.0 mi South 18.4 mph - N/A   Clear
3:55 PM 93.2 °F 93.3 °F 60.8 °F 34% 29.91 in 10.0 mi SSE 16.1 mph 25.3 mph N/A   Partly Cloudy
4:15 PM 93.2 °F 93.3 °F 60.8 °F 34% 29.91 in 10.0 mi SSE 19.6 mph - N/A   Partly Cloudy
4:35 PM 91.4 °F 91.4 °F 60.8 °F 36% 29.90 in 10.0 mi South 18.4 mph - N/A   Clear
4:55 PM 93.2 °F 93.3 °F 60.8 °F 34% 29.90 in 10.0 mi SSE 17.3 mph - N/A   Clear
5:15 PM 91.4 °F 91.4 °F 60.8 °F 36% 29.90 in 10.0 mi SSE 18.4 mph 24.2 mph N/A   Clear
5:55 PM 91.4 °F 92.1 °F 62.6 °F 38% 29.89 in 10.0 mi SSE 19.6 mph 25.3 mph N/A   Clear
6:35 PM 91.4 °F 91.4 °F 60.8 °F 36% 29.89 in 10.0 mi SSE 18.4 mph 25.3 mph N/A   Clear
6:55 PM 89.6 °F 89.5 °F 60.8 °F 38% 29.89 in 10.0 mi SSE 21.9 mph - N/A   Clear
9:15 PM 86.0 °F 87.3 °F 64.4 °F 48% 29.94 in 10.0 mi Variable 6.9 mph 13.8 mph N/A   Clear
9:35 PM 86.0 °F 87.3 °F 64.4 °F 48% 29.94 in 10.0 mi South 8.1 mph - N/A   Clear
9:55 PM 86.0 °F 88.2 °F 66.2 °F 51% 29.95 in 10.0 mi Variable 4.6 mph - N/A   Clear
10:15 PM 86.0 °F 87.3 °F 64.4 °F 48% 29.94 in 10.0 mi Variable 4.6 mph - N/A   Clear
10:35 PM 86.0 °F 87.3 °F 64.4 °F 48% 29.95 in 10.0 mi SSW 5.8 mph - N/A   Clear
10:55 PM 86.0 °F 87.3 °F 64.4 °F 48% 29.95 in 10.0 mi SSW 8.1 mph - N/A   Clear
11:15 PM 84.2 °F 85.6 °F 64.4 °F 51% 29.95 in 10.0 mi SW 5.8 mph - N/A   Clear
11:35 PM 84.2 °F 85.6 °F 64.4 °F 51% 29.95 in 10.0 mi SW 8.1 mph - N/A   Clear
11:55 PM 84.2 °F 85.6 °F 64.4 °F 51% 29.95 in 10.0 mi South 8.1 mph - N/A   Clear